Year,Month,Day,Hour,Minute,Value (Times are PST for temperature in C)
2011,08,16,00,00,13.30
2011,08,16,00,01,13.20
2011,08,16,00,02,13.20
2011,08,16,00,03,13.20
2011,08,16,00,04,13.20
2011,08,16,00,05,13.20
2011,08,16,00,06,13.20
2011,08,16,00,07,13.20
2011,08,16,00,08,13.20
2011,08,16,00,09,13.10
2011,08,16,00,10,13.10
2011,08,16,00,11,13.10
2011,08,16,00,12,13.00
2011,08,16,00,13,13.00
2011,08,16,00,14,13.00
2011,08,16,00,15,13.00
2011,08,16,00,16,13.00
2011,08,16,00,17,12.90
2011,08,16,00,18,12.90
2011,08,16,00,19,12.90
2011,08,16,00,20,12.90
2011,08,16,00,21,12.90
2011,08,16,00,22,12.90
2011,08,16,00,23,12.90
2011,08,16,00,24,12.80
2011,08,16,00,25,12.80
2011,08,16,00,26,12.80
2011,08,16,00,27,12.80
2011,08,16,00,28,12.80
2011,08,16,00,29,12.80
2011,08,16,00,30,12.80
2011,08,16,00,31,12.80
2011,08,16,00,32,12.80
2011,08,16,00,33,12.70
2011,08,16,00,34,12.70
2011,08,16,00,35,12.70
2011,08,16,00,36,12.70
2011,08,16,00,37,12.60
2011,08,16,00,38,12.60
2011,08,16,00,39,12.60
2011,08,16,00,40,12.60
2011,08,16,00,41,12.60
2011,08,16,00,42,12.60
2011,08,16,00,43,12.70
2011,08,16,00,44,12.70
2011,08,16,00,45,12.70
2011,08,16,00,46,12.70
2011,08,16,00,47,12.80
2011,08,16,00,48,12.80
2011,08,16,00,49,12.80
2011,08,16,00,50,12.80
2011,08,16,00,51,12.80
2011,08,16,00,52,12.80
2011,08,16,00,53,12.80
2011,08,16,00,54,12.80
2011,08,16,00,55,12.70
2011,08,16,00,56,12.70
2011,08,16,00,57,12.70
2011,08,16,00,58,12.70
2011,08,16,00,59,12.70
2011,08,16,01,00,12.70
2011,08,16,01,01,12.70
2011,08,16,01,02,12.60
2011,08,16,01,03,12.60
2011,08,16,01,04,12.60
2011,08,16,01,05,12.50
2011,08,16,01,06,12.50
2011,08,16,01,07,12.50
2011,08,16,01,08,12.50
2011,08,16,01,09,12.50
2011,08,16,01,10,12.40
2011,08,16,01,11,12.40
2011,08,16,01,12,12.40
2011,08,16,01,13,12.40
2011,08,16,01,14,12.40
2011,08,16,01,15,12.40
2011,08,16,01,16,12.40
2011,08,16,01,17,12.40
2011,08,16,01,18,12.40
2011,08,16,01,19,12.30
2011,08,16,01,20,12.30
2011,08,16,01,21,12.30
2011,08,16,01,22,12.30
2011,08,16,01,23,12.30
2011,08,16,01,24,12.30
2011,08,16,01,25,12.30
2011,08,16,01,26,12.30
2011,08,16,01,27,12.20
2011,08,16,01,28,12.20
2011,08,16,01,29,12.20
2011,08,16,01,30,12.20
2011,08,16,01,31,12.20
2011,08,16,01,32,12.20
2011,08,16,01,33,12.20
2011,08,16,01,34,12.20
2011,08,16,01,35,12.20
2011,08,16,01,36,12.20
2011,08,16,01,37,12.20
2011,08,16,01,38,12.20
2011,08,16,01,39,12.20
2011,08,16,01,40,12.20
2011,08,16,01,41,12.20
2011,08,16,01,42,12.20
2011,08,16,01,43,12.20
2011,08,16,01,44,12.20
2011,08,16,01,45,12.20
2011,08,16,01,46,12.20
2011,08,16,01,47,12.20
2011,08,16,01,48,12.20
2011,08,16,01,49,12.20
2011,08,16,01,50,12.20
2011,08,16,01,51,12.20
2011,08,16,01,52,12.20
2011,08,16,01,53,12.20
2011,08,16,01,54,12.20
2011,08,16,01,55,12.30
2011,08,16,01,56,12.30
2011,08,16,01,57,12.30
2011,08,16,01,58,12.30
2011,08,16,01,59,12.30
2011,08,16,02,00,12.30
2011,08,16,02,01,12.30
2011,08,16,02,02,12.30
2011,08,16,02,03,12.30
2011,08,16,02,04,12.30
2011,08,16,02,05,12.30
2011,08,16,02,06,12.20
2011,08,16,02,07,12.20
2011,08,16,02,08,12.10
2011,08,16,02,09,12.10
2011,08,16,02,10,12.10
2011,08,16,02,11,12.10
2011,08,16,02,12,12.00
2011,08,16,02,13,12.00
2011,08,16,02,14,12.00
2011,08,16,02,15,11.90
2011,08,16,02,16,11.90
2011,08,16,02,17,11.90
2011,08,16,02,18,11.90
2011,08,16,02,19,11.80
2011,08,16,02,20,11.80
2011,08,16,02,21,11.80
2011,08,16,02,22,11.80
2011,08,16,02,23,11.80
2011,08,16,02,24,11.80
2011,08,16,02,25,11.80
2011,08,16,02,26,11.80
2011,08,16,02,27,11.80
2011,08,16,02,28,11.80
2011,08,16,02,29,11.80
2011,08,16,02,30,11.80
2011,08,16,02,31,11.80
2011,08,16,02,32,11.70
2011,08,16,02,33,11.70
2011,08,16,02,34,11.70
2011,08,16,02,35,11.70
2011,08,16,02,36,11.70
2011,08,16,02,37,11.70
2011,08,16,02,38,11.70
2011,08,16,02,39,11.70
2011,08,16,02,40,11.70
2011,08,16,02,41,11.70
2011,08,16,02,42,11.70
2011,08,16,02,43,11.70
2011,08,16,02,44,11.70
2011,08,16,02,45,11.70
2011,08,16,02,46,11.60
2011,08,16,02,47,11.60
2011,08,16,02,48,11.60
2011,08,16,02,49,11.60
2011,08,16,02,50,11.60
2011,08,16,02,51,11.60
2011,08,16,02,52,11.60
2011,08,16,02,53,11.60
2011,08,16,02,54,11.60
2011,08,16,02,55,11.60
2011,08,16,02,56,11.60
2011,08,16,02,57,11.60
2011,08,16,02,58,11.60
2011,08,16,02,59,11.60
2011,08,16,03,00,11.60
2011,08,16,03,01,11.50
2011,08,16,03,02,11.40
2011,08,16,03,03,11.40
2011,08,16,03,04,11.40
2011,08,16,03,05,11.30
2011,08,16,03,06,11.30
2011,08,16,03,07,11.30
2011,08,16,03,08,11.20
2011,08,16,03,09,11.20
2011,08,16,03,10,11.20
2011,08,16,03,11,11.10
2011,08,16,03,12,11.10
2011,08,16,03,13,11.10
2011,08,16,03,14,11.10
2011,08,16,03,15,11.10
2011,08,16,03,16,11.00
2011,08,16,03,17,10.90
2011,08,16,03,18,10.90
2011,08,16,03,19,10.90
2011,08,16,03,20,10.90
2011,08,16,03,21,10.90
2011,08,16,03,22,10.90
2011,08,16,03,23,10.90
2011,08,16,03,24,10.90
2011,08,16,03,25,10.90
2011,08,16,03,26,10.90
2011,08,16,03,27,10.90
2011,08,16,03,28,10.90
2011,08,16,03,29,10.90
2011,08,16,03,30,10.90
2011,08,16,03,31,10.90
2011,08,16,03,32,10.80
2011,08,16,03,33,10.80
2011,08,16,03,34,10.80
2011,08,16,03,35,10.80
2011,08,16,03,36,10.70
2011,08,16,03,37,10.70
2011,08,16,03,38,10.70
2011,08,16,03,39,10.70
2011,08,16,03,40,10.70
2011,08,16,03,41,10.70
2011,08,16,03,42,10.70
2011,08,16,03,43,10.60
2011,08,16,03,44,10.60
2011,08,16,03,45,10.60
2011,08,16,03,46,10.60
2011,08,16,03,47,10.60
2011,08,16,03,48,10.60
2011,08,16,03,49,10.60
2011,08,16,03,50,10.60
2011,08,16,03,51,10.60
2011,08,16,03,52,10.60
2011,08,16,03,53,10.60
2011,08,16,03,54,10.60
2011,08,16,03,55,10.60
2011,08,16,03,56,10.60
2011,08,16,03,57,10.60
2011,08,16,03,58,10.60
2011,08,16,03,59,10.60
2011,08,16,04,00,10.60
2011,08,16,04,01,10.60
2011,08,16,04,02,10.60
2011,08,16,04,03,10.60
2011,08,16,04,04,10.50
2011,08,16,04,05,10.40
2011,08,16,04,06,10.40
2011,08,16,04,07,10.40
2011,08,16,04,08,10.40
2011,08,16,04,09,10.40
2011,08,16,04,10,10.40
2011,08,16,04,11,10.40
2011,08,16,04,12,10.40
2011,08,16,04,13,10.40
2011,08,16,04,14,10.40
2011,08,16,04,15,10.40
2011,08,16,04,16,10.40
2011,08,16,04,17,10.40
2011,08,16,04,18,10.40
2011,08,16,04,19,10.40
2011,08,16,04,20,10.40
2011,08,16,04,21,10.40
2011,08,16,04,22,10.40
2011,08,16,04,23,10.40
2011,08,16,04,24,10.40
2011,08,16,04,25,10.40
2011,08,16,04,26,10.40
2011,08,16,04,27,10.40
2011,08,16,04,28,10.40
2011,08,16,04,29,10.40
2011,08,16,04,30,10.40
2011,08,16,04,31,10.40
2011,08,16,04,32,10.30
2011,08,16,04,33,10.30
2011,08,16,04,34,10.30
2011,08,16,04,35,10.30
2011,08,16,04,36,10.30
2011,08,16,04,37,10.30
2011,08,16,04,38,10.30
2011,08,16,04,39,10.40
2011,08,16,04,40,10.40
2011,08,16,04,41,10.40
2011,08,16,04,42,10.40
2011,08,16,04,43,10.40
2011,08,16,04,44,10.40
2011,08,16,04,45,10.40
2011,08,16,04,46,10.40
2011,08,16,04,47,10.40
2011,08,16,04,48,10.40
2011,08,16,04,49,10.40
2011,08,16,04,50,10.40
2011,08,16,04,51,10.40
2011,08,16,04,52,10.40
2011,08,16,04,53,10.40
2011,08,16,04,54,10.40
2011,08,16,04,55,10.40
2011,08,16,04,56,10.50
2011,08,16,04,57,10.60
2011,08,16,04,58,10.60
2011,08,16,04,59,10.60
2011,08,16,05,00,10.60
2011,08,16,05,01,10.60
2011,08,16,05,02,10.60
2011,08,16,05,03,10.70
2011,08,16,05,04,10.70
2011,08,16,05,05,10.80
2011,08,16,05,06,10.80
2011,08,16,05,07,10.90
2011,08,16,05,08,10.90
2011,08,16,05,09,10.90
2011,08,16,05,10,10.90
2011,08,16,05,11,10.90
2011,08,16,05,12,10.90
2011,08,16,05,13,10.90
2011,08,16,05,14,10.90
2011,08,16,05,15,11.00
2011,08,16,05,16,11.10
2011,08,16,05,17,11.10
2011,08,16,05,18,11.10
2011,08,16,05,19,11.10
2011,08,16,05,20,11.10
2011,08,16,05,21,11.10
2011,08,16,05,22,11.10
2011,08,16,05,23,11.10
2011,08,16,05,24,11.10
2011,08,16,05,25,11.10
2011,08,16,05,26,11.10
2011,08,16,05,27,11.10
2011,08,16,05,28,11.10
2011,08,16,05,29,11.10
2011,08,16,05,30,11.10
2011,08,16,05,31,11.10
2011,08,16,05,32,11.10
2011,08,16,05,33,11.10
2011,08,16,05,34,11.10
2011,08,16,05,35,10.90
2011,08,16,05,36,10.90
2011,08,16,05,37,10.90
2011,08,16,05,38,10.80
2011,08,16,05,39,10.80
2011,08,16,05,40,10.70
2011,08,16,05,41,10.70
2011,08,16,05,42,10.70
2011,08,16,05,43,10.60
2011,08,16,05,44,10.60
2011,08,16,05,45,10.60
2011,08,16,05,46,10.60
2011,08,16,05,47,10.50
2011,08,16,05,48,10.40
2011,08,16,05,49,10.40
2011,08,16,05,50,10.40
2011,08,16,05,51,10.40
2011,08,16,05,52,10.40
2011,08,16,05,53,10.40
2011,08,16,05,54,10.40
2011,08,16,05,55,10.40
2011,08,16,05,56,10.40
2011,08,16,05,57,10.40
2011,08,16,05,58,10.40
2011,08,16,05,59,10.40
2011,08,16,06,00,10.40
2011,08,16,06,01,10.40
2011,08,16,06,02,10.40
2011,08,16,06,03,10.40
2011,08,16,06,04,10.40
2011,08,16,06,05,10.40
2011,08,16,06,06,10.30
2011,08,16,06,07,10.30
2011,08,16,06,08,10.30
2011,08,16,06,09,10.30
2011,08,16,06,10,10.30
2011,08,16,06,11,10.20
2011,08,16,06,12,10.20
2011,08,16,06,13,10.20
2011,08,16,06,14,10.20
2011,08,16,06,15,10.10
2011,08,16,06,16,10.10
2011,08,16,06,17,10.10
2011,08,16,06,18,10.10
2011,08,16,06,19,10.10
2011,08,16,06,20,10.10
2011,08,16,06,21,10.10
2011,08,16,06,22,10.10
2011,08,16,06,23,10.00
2011,08,16,06,24,9.90
2011,08,16,06,25,9.90
2011,08,16,06,26,9.90
2011,08,16,06,27,9.90
2011,08,16,06,28,9.90
2011,08,16,06,29,9.90
2011,08,16,06,30,9.90
2011,08,16,06,31,9.90
2011,08,16,06,32,9.90
2011,08,16,06,33,9.90
2011,08,16,06,34,9.90
2011,08,16,06,35,9.90
2011,08,16,06,36,9.90
2011,08,16,06,37,9.90
2011,08,16,06,38,9.90
2011,08,16,06,39,10.00
2011,08,16,06,40,10.10
2011,08,16,06,41,10.10
2011,08,16,06,42,10.10
2011,08,16,06,43,10.10
2011,08,16,06,44,10.10
2011,08,16,06,45,10.20
2011,08,16,06,46,10.20
2011,08,16,06,47,10.20
2011,08,16,06,48,10.30
2011,08,16,06,49,10.30
2011,08,16,06,50,10.40
2011,08,16,06,51,10.40
2011,08,16,06,52,10.40
2011,08,16,06,53,10.40
2011,08,16,06,54,10.40
2011,08,16,06,55,10.40
2011,08,16,06,56,10.50
2011,08,16,06,57,10.60
2011,08,16,06,58,10.60
2011,08,16,06,59,10.60
2011,08,16,07,00,10.70
2011,08,16,07,01,10.70
2011,08,16,07,02,10.80
2011,08,16,07,03,10.80
2011,08,16,07,04,10.90
2011,08,16,07,05,10.90
2011,08,16,07,06,11.00
2011,08,16,07,07,11.10
2011,08,16,07,08,11.10
2011,08,16,07,09,11.20
2011,08,16,07,10,11.30
2011,08,16,07,11,11.40
2011,08,16,07,12,11.40
2011,08,16,07,13,11.50
2011,08,16,07,14,11.60
2011,08,16,07,15,11.60
2011,08,16,07,16,11.60
2011,08,16,07,17,11.70
2011,08,16,07,18,11.80
2011,08,16,07,19,11.80
2011,08,16,07,20,11.80
2011,08,16,07,21,11.80
2011,08,16,07,22,11.90
2011,08,16,07,23,11.90
2011,08,16,07,24,11.90
2011,08,16,07,25,11.90
2011,08,16,07,26,11.90
2011,08,16,07,27,11.90
2011,08,16,07,28,11.90
2011,08,16,07,29,12.00
2011,08,16,07,30,12.00
2011,08,16,07,31,12.00
2011,08,16,07,32,12.10
2011,08,16,07,33,12.10
2011,08,16,07,34,12.20
2011,08,16,07,35,12.30
2011,08,16,07,36,12.30
2011,08,16,07,37,12.30
2011,08,16,07,38,12.30
2011,08,16,07,39,12.30
2011,08,16,07,40,12.30
2011,08,16,07,41,12.40
2011,08,16,07,42,12.40
2011,08,16,07,43,12.40
2011,08,16,07,44,12.40
2011,08,16,07,45,12.50
2011,08,16,07,46,12.50
2011,08,16,07,47,12.50
2011,08,16,07,48,12.50
2011,08,16,07,49,12.50
2011,08,16,07,50,12.50
2011,08,16,07,51,12.60
2011,08,16,07,52,12.60
2011,08,16,07,53,12.60
2011,08,16,07,54,12.60
2011,08,16,07,55,12.60
2011,08,16,07,56,12.60
2011,08,16,07,57,12.60
2011,08,16,07,58,12.60
2011,08,16,07,59,12.60
2011,08,16,08,00,12.60
2011,08,16,08,01,12.60
2011,08,16,08,02,12.70
2011,08,16,08,03,12.70
2011,08,16,08,04,12.70
2011,08,16,08,05,12.70
2011,08,16,08,06,12.80
2011,08,16,08,07,12.80
2011,08,16,08,08,12.80
2011,08,16,08,09,12.80
2011,08,16,08,10,12.80
2011,08,16,08,11,12.80
2011,08,16,08,12,12.90
2011,08,16,08,13,12.90
2011,08,16,08,14,12.90
2011,08,16,08,15,12.80
2011,08,16,08,16,12.80
2011,08,16,08,17,12.80
2011,08,16,08,18,12.80
2011,08,16,08,19,12.80
2011,08,16,08,20,12.80
2011,08,16,08,21,12.80
2011,08,16,08,22,12.90
2011,08,16,08,23,12.90
2011,08,16,08,24,13.00
2011,08,16,08,25,13.00
2011,08,16,08,26,13.00
2011,08,16,08,27,13.00
2011,08,16,08,28,13.10
2011,08,16,08,29,13.10
2011,08,16,08,30,13.10
2011,08,16,08,31,13.20
2011,08,16,08,32,13.20
2011,08,16,08,33,13.20
2011,08,16,08,34,13.30
2011,08,16,08,35,13.30
2011,08,16,08,36,13.30
2011,08,16,08,37,13.30
2011,08,16,08,38,13.30
2011,08,16,08,39,13.30
2011,08,16,08,40,13.30
2011,08,16,08,41,13.30
2011,08,16,08,42,13.30
2011,08,16,08,43,13.40
2011,08,16,08,44,13.40
2011,08,16,08,45,13.40
2011,08,16,08,46,13.40
2011,08,16,08,47,13.40
2011,08,16,08,48,13.40
2011,08,16,08,49,13.40
2011,08,16,08,50,13.40
2011,08,16,08,51,13.50
2011,08,16,08,52,13.50
2011,08,16,08,53,13.50
2011,08,16,08,54,13.50
2011,08,16,08,55,13.50
2011,08,16,08,56,13.60
2011,08,16,08,57,13.70
2011,08,16,08,58,13.70
2011,08,16,08,59,13.70
2011,08,16,09,00,13.80
2011,08,16,09,01,13.80
2011,08,16,09,02,13.80
2011,08,16,09,03,13.80
2011,08,16,09,04,13.90
2011,08,16,09,05,13.90
2011,08,16,09,06,13.90
2011,08,16,09,07,14.00
2011,08,16,09,08,14.10
2011,08,16,09,09,14.20
2011,08,16,09,10,14.20
2011,08,16,09,11,14.20
2011,08,16,09,12,14.30
2011,08,16,09,13,14.50
2011,08,16,09,14,14.60
2011,08,16,09,15,14.70
2011,08,16,09,16,14.70
2011,08,16,09,17,14.70
2011,08,16,09,18,14.80
2011,08,16,09,19,14.90
2011,08,16,09,20,14.90
2011,08,16,09,21,15.00
2011,08,16,09,22,15.00
2011,08,16,09,23,15.10
2011,08,16,09,24,15.10
2011,08,16,09,25,15.10
2011,08,16,09,26,15.20
2011,08,16,09,27,15.30
2011,08,16,09,28,15.30
2011,08,16,09,29,15.40
2011,08,16,09,30,15.50
2011,08,16,09,31,15.50
2011,08,16,09,32,15.50
2011,08,16,09,33,15.60
2011,08,16,09,34,15.70
2011,08,16,09,35,15.70
2011,08,16,09,36,15.80
2011,08,16,09,37,15.80
2011,08,16,09,38,15.70
2011,08,16,09,39,15.70
2011,08,16,09,40,15.70
2011,08,16,09,41,15.60
2011,08,16,09,42,15.50
2011,08,16,09,43,15.40
2011,08,16,09,44,15.30
2011,08,16,09,45,15.30
2011,08,16,09,46,15.20
2011,08,16,09,47,15.20
2011,08,16,09,48,15.20
2011,08,16,09,49,15.20
2011,08,16,09,50,15.20
2011,08,16,09,51,15.20
2011,08,16,09,52,15.20
2011,08,16,09,53,15.30
2011,08,16,09,54,15.30
2011,08,16,09,55,15.30
2011,08,16,09,56,15.30
2011,08,16,09,57,15.30
2011,08,16,09,58,15.30
2011,08,16,09,59,15.30
2011,08,16,10,00,15.30
2011,08,16,10,01,15.30
2011,08,16,10,02,15.30
2011,08,16,10,03,15.30
2011,08,16,10,04,15.40
2011,08,16,10,05,15.40
2011,08,16,10,06,15.30
2011,08,16,10,07,15.40
2011,08,16,10,08,15.40
2011,08,16,10,09,15.50
2011,08,16,10,10,15.60
2011,08,16,10,11,15.60
2011,08,16,10,12,15.70
2011,08,16,10,13,15.80
2011,08,16,10,14,15.80
2011,08,16,10,15,15.90
2011,08,16,10,16,15.90
2011,08,16,10,17,16.00
2011,08,16,10,18,16.10
2011,08,16,10,19,16.10
2011,08,16,10,20,16.20
2011,08,16,10,21,16.10
2011,08,16,10,22,16.10
2011,08,16,10,23,16.00
2011,08,16,10,24,16.00
2011,08,16,10,25,16.10
2011,08,16,10,26,16.10
2011,08,16,10,27,16.10
2011,08,16,10,28,16.10
2011,08,16,10,29,16.10
2011,08,16,10,30,16.10
2011,08,16,10,31,16.10
2011,08,16,10,32,16.10
2011,08,16,10,33,16.10
2011,08,16,10,34,16.10
2011,08,16,10,35,16.10
2011,08,16,10,36,16.10
2011,08,16,10,37,16.10
2011,08,16,10,38,16.10
2011,08,16,10,39,16.10
2011,08,16,10,40,16.10
2011,08,16,10,41,16.10
2011,08,16,10,42,16.10
2011,08,16,10,43,16.10
2011,08,16,10,44,16.10
2011,08,16,10,45,16.10
2011,08,16,10,46,16.10
2011,08,16,10,47,16.10
2011,08,16,10,48,16.10
2011,08,16,10,49,16.10
2011,08,16,10,50,16.00
2011,08,16,10,51,15.90
2011,08,16,10,52,15.90
2011,08,16,10,53,16.00
2011,08,16,10,54,16.10
2011,08,16,10,55,16.10
2011,08,16,10,56,16.10
2011,08,16,10,57,16.10
2011,08,16,10,58,16.10
2011,08,16,10,59,16.20
2011,08,16,11,00,16.20
2011,08,16,11,01,16.20
2011,08,16,11,02,16.20
2011,08,16,11,03,16.20
2011,08,16,11,04,16.20
2011,08,16,11,05,16.20
2011,08,16,11,06,16.20
2011,08,16,11,07,16.20
2011,08,16,11,08,16.30
2011,08,16,11,09,16.40
2011,08,16,11,10,16.40
2011,08,16,11,11,16.40
2011,08,16,11,12,16.40
2011,08,16,11,13,16.40
2011,08,16,11,14,16.40
2011,08,16,11,15,16.40
2011,08,16,11,16,16.40
2011,08,16,11,17,16.40
2011,08,16,11,18,16.50
2011,08,16,11,19,16.60
2011,08,16,11,20,16.60
2011,08,16,11,21,16.60
2011,08,16,11,22,16.70
2011,08,16,11,23,16.70
2011,08,16,11,24,16.60
2011,08,16,11,25,16.60
2011,08,16,11,26,16.70
2011,08,16,11,27,16.70
2011,08,16,11,28,16.70
2011,08,16,11,29,16.70
2011,08,16,11,30,16.60
2011,08,16,11,31,16.60
2011,08,16,11,32,16.60
2011,08,16,11,33,16.70
2011,08,16,11,34,16.80
2011,08,16,11,35,16.80
2011,08,16,11,36,16.80
2011,08,16,11,37,16.80
2011,08,16,11,38,16.80
2011,08,16,11,39,16.90
2011,08,16,11,40,17.00
2011,08,16,11,41,17.00
2011,08,16,11,42,17.00
2011,08,16,11,43,17.00
2011,08,16,11,44,17.10
2011,08,16,11,45,17.10
2011,08,16,11,46,17.20
2011,08,16,11,47,17.30
2011,08,16,11,48,17.30
2011,08,16,11,49,17.30
2011,08,16,11,50,17.30
2011,08,16,11,51,17.40
2011,08,16,11,52,17.40
2011,08,16,11,53,17.40
2011,08,16,11,54,17.30
2011,08,16,11,55,17.40
2011,08,16,11,56,17.40
2011,08,16,11,57,17.40
2011,08,16,11,58,17.40
2011,08,16,11,59,17.40
2011,08,16,12,00,17.50
2011,08,16,12,01,17.50
2011,08,16,12,02,17.60
2011,08,16,12,03,17.70
2011,08,16,12,04,17.70
2011,08,16,12,05,17.60
2011,08,16,12,06,17.60
2011,08,16,12,07,17.50
2011,08,16,12,08,17.50
2011,08,16,12,09,17.50
2011,08,16,12,10,17.50
2011,08,16,12,11,17.50
2011,08,16,12,12,17.50
2011,08,16,12,13,17.50
2011,08,16,12,14,17.50
2011,08,16,12,15,17.50
2011,08,16,12,16,17.50
2011,08,16,12,17,17.40
2011,08,16,12,18,17.40
2011,08,16,12,19,17.40
2011,08,16,12,20,17.40
2011,08,16,12,21,17.50
2011,08,16,12,22,17.50
2011,08,16,12,23,17.60
2011,08,16,12,24,17.70
2011,08,16,12,25,17.70
2011,08,16,12,26,17.80
2011,08,16,12,27,17.90
2011,08,16,12,28,17.90
2011,08,16,12,29,17.90
2011,08,16,12,30,17.90
2011,08,16,12,31,17.90
2011,08,16,12,32,17.90
2011,08,16,12,33,17.90
2011,08,16,12,34,18.00
2011,08,16,12,35,18.10
2011,08,16,12,36,18.20
2011,08,16,12,37,18.20
2011,08,16,12,38,18.30
2011,08,16,12,39,18.30
2011,08,16,12,40,18.30
2011,08,16,12,41,18.30
2011,08,16,12,42,18.30
2011,08,16,12,43,18.40
2011,08,16,12,44,18.50
2011,08,16,12,45,18.50
2011,08,16,12,46,18.50
2011,08,16,12,47,18.50
2011,08,16,12,48,18.50
2011,08,16,12,49,18.50
2011,08,16,12,50,18.50
2011,08,16,12,51,18.60
2011,08,16,12,52,18.70
2011,08,16,12,53,18.70
2011,08,16,12,54,18.70
2011,08,16,12,55,18.70
2011,08,16,12,56,18.60
2011,08,16,12,57,18.60
2011,08,16,12,58,18.60
2011,08,16,12,59,18.60
2011,08,16,13,00,18.60
2011,08,16,13,01,18.60
2011,08,16,13,02,18.60
2011,08,16,13,03,18.60
2011,08,16,13,04,18.60
2011,08,16,13,05,18.50
2011,08,16,13,06,18.50
2011,08,16,13,07,18.60
2011,08,16,13,08,18.70
2011,08,16,13,09,18.80
2011,08,16,13,10,18.90
2011,08,16,13,11,19.10
2011,08,16,13,12,19.20
2011,08,16,13,13,19.20
2011,08,16,13,14,19.20
2011,08,16,13,15,19.20
2011,08,16,13,16,19.20
2011,08,16,13,17,19.20
2011,08,16,13,18,19.20
2011,08,16,13,19,19.10
2011,08,16,13,20,19.10
2011,08,16,13,21,19.10
2011,08,16,13,22,19.00
2011,08,16,13,23,19.10
2011,08,16,13,24,19.10
2011,08,16,13,25,19.10
2011,08,16,13,26,19.10
2011,08,16,13,27,19.10
2011,08,16,13,28,19.10
2011,08,16,13,29,19.10
2011,08,16,13,30,19.10
2011,08,16,13,31,19.20
2011,08,16,13,32,19.20
2011,08,16,13,33,19.20
2011,08,16,13,34,19.40
2011,08,16,13,35,19.50
2011,08,16,13,36,19.50
2011,08,16,13,37,19.50
2011,08,16,13,38,19.60
2011,08,16,13,39,19.50
2011,08,16,13,40,19.50
2011,08,16,13,41,19.60
2011,08,16,13,42,19.60
2011,08,16,13,43,19.70
2011,08,16,13,44,19.70
2011,08,16,13,45,19.70
2011,08,16,13,46,19.70
2011,08,16,13,47,19.70
2011,08,16,13,48,19.60
2011,08,16,13,49,19.50
2011,08,16,13,50,19.50
2011,08,16,13,51,19.50
2011,08,16,13,52,19.60
2011,08,16,13,53,19.70
2011,08,16,13,54,19.80
2011,08,16,13,55,19.90
2011,08,16,13,56,19.90
2011,08,16,13,57,20.00
2011,08,16,13,58,20.10
2011,08,16,13,59,20.20
2011,08,16,14,00,20.20
2011,08,16,14,01,20.20
2011,08,16,14,02,20.20
2011,08,16,14,03,20.20
2011,08,16,14,04,20.20
2011,08,16,14,05,20.20
2011,08,16,14,06,20.30
2011,08,16,14,07,20.30
2011,08,16,14,08,20.40
2011,08,16,14,09,20.40
2011,08,16,14,10,20.30
2011,08,16,14,11,20.30
2011,08,16,14,12,20.20
2011,08,16,14,13,20.10
2011,08,16,14,14,20.10
2011,08,16,14,15,20.10
2011,08,16,14,16,20.20
2011,08,16,14,17,20.20
2011,08,16,14,18,20.20
2011,08,16,14,19,20.20
2011,08,16,14,20,20.20
2011,08,16,14,21,20.30
2011,08,16,14,22,20.20
2011,08,16,14,23,20.20
2011,08,16,14,24,20.20
2011,08,16,14,25,20.20
2011,08,16,14,26,20.30
2011,08,16,14,27,20.30
2011,08,16,14,28,20.40
2011,08,16,14,29,20.50
2011,08,16,14,30,20.60
2011,08,16,14,31,20.60
2011,08,16,14,32,20.60
2011,08,16,14,33,20.60
2011,08,16,14,34,20.60
2011,08,16,14,35,20.60
2011,08,16,14,36,20.60
2011,08,16,14,37,20.60
2011,08,16,14,38,20.60
2011,08,16,14,39,20.50
2011,08,16,14,40,20.30
2011,08,16,14,41,20.20
2011,08,16,14,42,20.10
2011,08,16,14,43,19.90
2011,08,16,14,44,19.90
2011,08,16,14,45,19.90
2011,08,16,14,46,19.90
2011,08,16,14,47,20.00
2011,08,16,14,48,20.10
2011,08,16,14,49,20.20
2011,08,16,14,50,20.20
2011,08,16,14,51,20.20
2011,08,16,14,52,20.20
2011,08,16,14,53,20.20
2011,08,16,14,54,20.30
2011,08,16,14,55,20.20
2011,08,16,14,56,20.20
2011,08,16,14,57,20.20
2011,08,16,14,58,20.10
2011,08,16,14,59,20.00
2011,08,16,15,00,19.90
2011,08,16,15,01,19.90
2011,08,16,15,02,19.70
2011,08,16,15,03,19.60
2011,08,16,15,04,19.50
2011,08,16,15,05,19.40
2011,08,16,15,06,19.30
2011,08,16,15,07,19.30
2011,08,16,15,08,19.30
2011,08,16,15,09,19.40
2011,08,16,15,10,19.50
2011,08,16,15,11,19.60
2011,08,16,15,12,19.70
2011,08,16,15,13,19.70
2011,08,16,15,14,19.80
2011,08,16,15,15,19.80
2011,08,16,15,16,19.80
2011,08,16,15,17,19.90
2011,08,16,15,18,20.00
2011,08,16,15,19,20.10
2011,08,16,15,20,20.10
2011,08,16,15,21,20.10
2011,08,16,15,22,20.20
2011,08,16,15,23,20.20
2011,08,16,15,24,20.20
2011,08,16,15,25,20.20
2011,08,16,15,26,20.20
2011,08,16,15,27,20.30
2011,08,16,15,28,20.30
2011,08,16,15,29,20.30
2011,08,16,15,30,20.30
2011,08,16,15,31,20.20
2011,08,16,15,32,20.10
2011,08,16,15,33,19.90
2011,08,16,15,34,19.90
2011,08,16,15,35,19.80
2011,08,16,15,36,19.80
2011,08,16,15,37,19.70
2011,08,16,15,38,19.70
2011,08,16,15,39,19.70
2011,08,16,15,40,19.70
2011,08,16,15,41,19.70
2011,08,16,15,42,19.70
2011,08,16,15,43,19.80
2011,08,16,15,44,19.90
2011,08,16,15,45,19.90
2011,08,16,15,46,19.90
2011,08,16,15,47,19.90
2011,08,16,15,48,19.90
2011,08,16,15,49,19.90
2011,08,16,15,50,19.90
2011,08,16,15,51,19.90
2011,08,16,15,52,19.90
2011,08,16,15,53,19.90
2011,08,16,15,54,19.90
2011,08,16,15,55,19.90
2011,08,16,15,56,20.00
2011,08,16,15,57,20.10
2011,08,16,15,58,20.10
2011,08,16,15,59,20.10
2011,08,16,16,00,20.10
2011,08,16,16,01,20.10
2011,08,16,16,02,20.20
2011,08,16,16,03,20.30
2011,08,16,16,04,20.30
2011,08,16,16,05,20.40
2011,08,16,16,06,20.40
2011,08,16,16,07,20.50
2011,08,16,16,08,20.50
2011,08,16,16,09,20.60
2011,08,16,16,10,20.70
2011,08,16,16,11,20.70
2011,08,16,16,12,20.70
2011,08,16,16,13,20.70
2011,08,16,16,14,20.80
2011,08,16,16,15,20.80
2011,08,16,16,16,20.90
2011,08,16,16,17,20.90
2011,08,16,16,18,21.00
2011,08,16,16,19,21.00
2011,08,16,16,20,21.00
2011,08,16,16,21,21.10
2011,08,16,16,22,21.10
2011,08,16,16,23,21.20
2011,08,16,16,24,21.20
2011,08,16,16,25,21.30
2011,08,16,16,26,21.30
2011,08,16,16,27,21.20
2011,08,16,16,28,21.20
2011,08,16,16,29,21.20
2011,08,16,16,30,21.30
2011,08,16,16,31,21.30
2011,08,16,16,32,21.30
2011,08,16,16,33,21.30
2011,08,16,16,34,21.30
2011,08,16,16,35,21.40
2011,08,16,16,36,21.40
2011,08,16,16,37,21.40
2011,08,16,16,38,21.60
2011,08,16,16,39,21.60
2011,08,16,16,40,21.80
2011,08,16,16,41,21.90
2011,08,16,16,42,22.00
2011,08,16,16,43,22.10
2011,08,16,16,44,22.10
2011,08,16,16,45,22.20
2011,08,16,16,46,22.20
2011,08,16,16,47,22.30
2011,08,16,16,48,22.40
2011,08,16,16,49,22.40
2011,08,16,16,50,22.40
2011,08,16,16,51,22.40
2011,08,16,16,52,22.40
2011,08,16,16,53,22.30
2011,08,16,16,54,22.30
2011,08,16,16,55,22.20
2011,08,16,16,56,22.20
2011,08,16,16,57,22.20
2011,08,16,16,58,22.20
2011,08,16,16,59,22.20
2011,08,16,17,00,22.10
2011,08,16,17,01,22.10
2011,08,16,17,02,22.10
2011,08,16,17,03,22.10
2011,08,16,17,04,22.10
2011,08,16,17,05,22.00
2011,08,16,17,06,22.00
2011,08,16,17,07,21.90
2011,08,16,17,08,21.90
2011,08,16,17,09,21.80
2011,08,16,17,10,21.80
2011,08,16,17,11,21.80
2011,08,16,17,12,21.80
2011,08,16,17,13,21.80
2011,08,16,17,14,21.80
2011,08,16,17,15,21.80
2011,08,16,17,16,21.80
2011,08,16,17,17,21.80
2011,08,16,17,18,21.80
2011,08,16,17,19,21.80
2011,08,16,17,20,21.80